Guangchuan 02

operational
NORAD ID: 62112 Int'l Des: 2024-221 Owner: HONGQ Country: CN
LEOCIRCULAR

About Guangchuan 02

Description loading...

Live Position

Loading 3D Globe...

Upcoming Passes

Altitude History

Altitude vs Time

uPlot chart will show altitude changes over time

Two-Line Element Set

1 62112U 24221B 26062.14239221 .00004948 00000-0 26327-3 0 9991
2 62112 49.9437 318.2656 0006750 279.6652 80.3537 15.16850089 70103
Epoch: Mar 3, 2026 • Age: 16 hours

Current Status

Altitude 519.4 km
Velocity 7.61 km/s
Sub-Earth Point -26.61°S, 109.12°W
Launch Date Nov 27, 2024
Age 1.2 years
Type other

Technical Details

Classification Payload
Mass 500.00 kg
Dry Mass 500.00 kg
Total Mass 500.00 kg
Length 0.50 m
Diameter 1.80 m
Span 6.00 m
Shape Box + 2 pan
Manufacturer CAST
Bus Type HQ
Phase Status In Orbit
Owner/State HONGQ/CN

Large Constellations

Loading constellations...